This is the latest recevied weather packets stored in our database for station/object IZ1UQG-1. If no packets are shown the sender has not sent any weather packets the latest 10 day(s).
| Time | Temp. | Humidity | Pressure | Rain* | Wind** | Luminosity | Snow |
|---|---|---|---|---|---|---|---|
| 1778098432 | 13.89° C | 81% | 1011.1 hPa | 129.29 mm | - | - | - |
| 1778098132 | 13.89° C | 81% | 1011 hPa | 135.13 mm | - | - | - |
| 1778097832 | 13.89° C | 81% | 1011 hPa | 138.68 mm | - | - | - |
| 1778097532 | 14.44° C | 81% | 1010.9 hPa | 122.17 mm | - | - | - |
| 1778097232 | 14.44° C | 80% | 1011 hPa | 143.76 mm | - | - | - |
| 1778096932 | 14.44° C | 80% | 1010.9 hPa | 140.72 mm | - | - | - |
| 1778096633 | 14.44° C | 80% | 1010.8 hPa | 148.59 mm | - | - | - |
| 1778096332 | 14.44° C | 80% | 1010.7 hPa | 144.27 mm | - | - | - |
| 1778096033 | 14.44° C | 80% | 1010.6 hPa | 164.08 mm | - | - | - |
| 1778095732 | 14.44° C | 80% | 1010.5 hPa | 153.16 mm | - | - | - |
| 1778095432 | 14.44° C | 80% | 1010.3 hPa | 155.7 mm | - | - | - |
| 1778095133 | 15° C | 80% | 1010.4 hPa | 197.87 mm | - | - | - |
| 1778094832 | 15° C | 80% | 1010.2 hPa | 189.99 mm | - | - | - |
| 1778094532 | 15° C | 80% | 1010 hPa | 200.91 mm | - | - | - |
| 1778094232 | 15° C | 80% | 1009.9 hPa | 203.96 mm | - | - | - |
| 1778093932 | 15° C | 80% | 1009.7 hPa | 244.86 mm | - | - | - |
| 1778093632 | 15° C | 80% | 1009.7 hPa | 239.78 mm | - | - | - |
| 1778093333 | 15.56° C | 79% | 1009.4 hPa | 247.9 mm | - | - | - |
| 1778093033 | 15.56° C | 79% | 1009.3 hPa | 242.82 mm | - | - | - |
| 1778092733 | 15.56° C | 78% | 1009.2 hPa | 242.82 mm | - | - | - |
| 1778092433 | 15.56° C | 78% | 1009 hPa | 39.12 mm | - | - | - |
| 1778092133 | 15.56° C | 77% | 1009.1 hPa | 49.02 mm | - | - | - |
| 1778091833 | 16.11° C | 76% | 1009 hPa | 48.26 mm | - | - | - |
| 1778091533 | 16.11° C | 77% | 1008.9 hPa | 37.08 mm | - | - | - |
| 1778091233 | 16.11° C | 77% | 1009 hPa | 78.49 mm | - | - | - |
* Rain latest hour (hover to see other rain measurements)
** Current wind speed in m/s (hover to see current wind gust speed)